Hourly Data Report for March 10, 2004

TORONTO CITY
ONTARIO

43°40'00.000" N
79°24'00.000" W
112.50 m
6158355
71508
XTO

Download Data

Hourly Data (March 2004)
Hourly Data Report for March 10, 2004
TIME
LST
Temp Definition
°C
Dew Point Definition
°C
Rel Hum Definition
%
Precip. Amount Definition
mm

Wind Dir Definition
10's deg

Wind Spd Definition
km/h
Visibility Definition
km
Stn Press Definition
kPa
Hmdx Definition


Wind Chill Definition


Weather Definition


00:00 -0.3 -6.2 64   LegendMM LegendMM LegendMM 101.22     LegendNANA
01:00 -0.2 -6.7 62   LegendMM LegendMM LegendMM 101.22     LegendNANA
02:00 -0.5 -7.2 60   LegendMM LegendMM LegendMM 101.27     LegendNANA
03:00 -0.7 -7.4 60   LegendMM LegendMM LegendMM 101.26     LegendNANA
04:00 -0.7 -8.0 58   LegendMM LegendMM LegendMM 101.28     LegendNANA
05:00 -0.8 -8.6 55   LegendMM LegendMM LegendMM 101.32     LegendNANA
06:00 -1.4 -7.2 65   LegendMM LegendMM LegendMM 101.37     LegendNANA
07:00 -1.1 -6.1 69   LegendMM LegendMM LegendMM 101.42     LegendNANA
08:00 1.0 -1.8 82   LegendMM LegendMM LegendMM 101.49     LegendNANA
09:00 2.2 -1.3 78   LegendMM LegendMM LegendMM 101.52     LegendNANA
10:00 3.3 -1.9 69   LegendMM LegendMM LegendMM 101.54     LegendNANA
11:00 3.4 -1.8 69   LegendMM LegendMM LegendMM 101.53     LegendNANA
12:00 4.0 -2.9 61   LegendMM LegendMM LegendMM 101.53     LegendNANA
13:00 4.4 -3.5 56   LegendMM LegendMM LegendMM 101.47     LegendNANA
14:00 4.8 -2.8 58   LegendMM LegendMM LegendMM 101.41     LegendNANA
15:00 4.6 -3.7 55   LegendMM LegendMM LegendMM 101.35     LegendNANA
16:00 4.3 -4.0 55   LegendMM LegendMM LegendMM 101.28     LegendNANA
17:00 3.3 -1.7 70   LegendMM LegendMM LegendMM 101.27     LegendNANA
18:00 2.5 -2.5 70   LegendMM LegendMM LegendMM 101.24     LegendNANA
19:00 1.8 -1.0 82   LegendMM LegendMM LegendMM 101.20     LegendNANA
20:00 1.5 -1.2 82   LegendMM LegendMM LegendMM 101.17     LegendNANA
21:00 1.6 -1.4 80   LegendMM LegendMM LegendMM 101.15     LegendNANA
22:00 1.8 -0.9 82   LegendMM LegendMM LegendMM 101.10     LegendNANA
23:00 1.9 -0.9 82   LegendMM LegendMM LegendMM 101.09     LegendNANA

Notes on Data Quality.

Legend

  • E = Estimated
  • M = Missing
  • NA = Not Available*
  • [empty] = Indicates an unobserved value
Date modified: